BEIDOU-3 M7 (C29)

Last updated on Mon Feb 13 2023 00:03:21 GMT+0000 (Coordinated Universal Time)

1 43245U 18029A 23042.68128840 -.00000076 00000+0 00000+0 0 9998 2 43245 55.1278 342.2423 0001649 318.7189 239.4234 1.86232487 33144

Satellite not in orbit

BEIDOU-3 M7 (C29)